Location: Marcé
(47.5801°N, 0.3280°W)
Time: 13:42:45
(UTC+02:00)

X-37B - Pass Details

Date: 28 September 2023
Orbit: 277 x 277 km, 45.0° (Epoch: 01 November)

Event Time Altitude Azimuth Distance (km) Brightness Sun altitude
Exits shadow 06:24:50 11° 169° (SSE) 1,070 2.8 -16.0°
Drops below altitude 10° 06:24:57 10° 166° (SSE) 1,102 2.9 -16.0°
Sets 06:27:19 0° 141° (SE) 1,906 4.4 -15.6°
